Hourly Weather Bolshie Pady

Today, 20 June, Sunday

Time Temperature Precipitation Wind Pressure Humidity
00:00 +18°C° 0 mm 1 mps 757 mmHg 80%
01:00 +16°C° 0 mm 1 mps 757 mmHg 82%
02:00 +16°C° 0 mm 1 mps 757 mmHg 83%
03:00 +16°C° 0 mm 1 mps 757 mmHg 85%
04:00 +16°C° 0 mm 1 mps 757 mmHg 83%
05:00 +18°C° 0 mm 1 mps 757 mmHg 82%
06:00 +19°C° 0 mm 1 mps 757 mmHg 81%
07:00 +20°C° 0 mm 2 mps 757 mmHg 76%
08:00 +23°C° 0 mm 2 mps 757 mmHg 70%
09:00 +24°C° 0 mm 2 mps 757 mmHg 64%
10:00 +25°C° 0 mm 2 mps 756 mmHg 60%
11:00 +26°C° 0 mm 3 mps 756 mmHg 56%
12:00 +27°C° 0 mm 3 mps 756 mmHg 52%
13:00 +28°C° 0 mm 3 mps 756 mmHg 51%
14:00 +28°C° 0 mm 3 mps 756 mmHg 50%
15:00 +29°C° 0 mm 3 mps 755 mmHg 50%
16:00 +29°C° 0 mm 3 mps 755 mmHg 55%
17:00 +28°C° 0 mm 2 mps 755 mmHg 60%
18:00 +28°C° 0 mm 2 mps 754 mmHg 65%
19:00 +26°C° 0 mm 2 mps 754 mmHg 69%
20:00 +24°C° 0 mm 2 mps 755 mmHg 73%
21:00 +21°C° 0 mm 2 mps 755 mmHg 77%
22:00 +21°C° 0 mm 2 mps 755 mmHg 78%
23:00 +20°C° 0 mm 2 mps 755 mmHg 79%

Tomorrow, 21 June, Monday

Time Temperature Precipitation Wind Pressure Humidity
00:00 +20°C° 0 mm 2 mps 755 mmHg 80%
01:00 +19°C° 0 mm 2 mps 754 mmHg 80%
02:00 +19°C° 0 mm 2 mps 754 mmHg 81%
03:00 +18°C° 0 mm 2 mps 754 mmHg 82%
04:00 +19°C° 0 mm 2 mps 755 mmHg 82%
05:00 +19°C° 0 mm 2 mps 755 mmHg 82%
06:00 +20°C° 0 mm 2 mps 755 mmHg 82%
07:00 +21°C° 0 mm 3 mps 755 mmHg 76%
08:00 +24°C° 0 mm 3 mps 755 mmHg 69%
09:00 +26°C° 0 mm 3 mps 755 mmHg 63%
10:00 +27°C° 0 mm 3 mps 755 mmHg 59%
11:00 +28°C° 0 mm 3 mps 755 mmHg 55%
12:00 +30°C° 0 mm 3 mps 755 mmHg 51%
13:00 +30°C° 0 mm 3 mps 755 mmHg 51%
14:00 +30°C° 0 mm 3 mps 755 mmHg 51%
15:00 +30°C° 0 mm 3 mps 754 mmHg 51%
16:00 +30°C° 0 mm 3 mps 754 mmHg 57%
17:00 +29°C° 0 mm 3 mps 754 mmHg 63%
18:00 +28°C° 0 mm 2 mps 754 mmHg 69%
19:00 +27°C° 0 mm 2 mps 754 mmHg 72%
20:00 +25°C° 0 mm 2 mps 754 mmHg 75%
21:00 +24°C° 0 mm 2 mps 754 mmHg 77%
22:00 +23°C° 0 mm 2 mps 754 mmHg 77%
23:00 +21°C° 0 mm 2 mps 754 mmHg 77%

Day after tomorrow, 22 June, Tuesday

Time Temperature Precipitation Wind Pressure Humidity
00:00 +21°C° 0 mm 2 mps 754 mmHg 77%
01:00 +20°C° 0 mm 2 mps 754 mmHg 78%
02:00 +20°C° 0 mm 2 mps 754 mmHg 80%
03:00 +19°C° 0 mm 2 mps 755 mmHg 81%
04:00 +20°C° 0 mm 2 mps 755 mmHg 81%
05:00 +20°C° 0 mm 2 mps 755 mmHg 81%
06:00 +21°C° 0 mm 2 mps 755 mmHg 82%
07:00 +24°C° 0 mm 2 mps 755 mmHg 76%
08:00 +26°C° 0 mm 3 mps 755 mmHg 70%
09:00 +28°C° 0 mm 3 mps 755 mmHg 64%
10:00 +29°C° 0 mm 3 mps 755 mmHg 59%
11:00 +30°C° 0 mm 3 mps 755 mmHg 54%
12:00 +31°C° 0 mm 3 mps 755 mmHg 49%
13:00 +33°C° 0 mm 3 mps 755 mmHg 48%
14:00 +33°C° 0 mm 3 mps 755 mmHg 47%
15:00 +33°C° 0 mm 3 mps 755 mmHg 45%
16:00 +32°C° 0 mm 2 mps 754 mmHg 51%
17:00 +31°C° 0 mm 2 mps 754 mmHg 57%
18:00 +30°C° 0 mm 2 mps 754 mmHg 63%
19:00 +29°C° 0 mm 2 mps 754 mmHg 66%
20:00 +27°C° 0 mm 2 mps 754 mmHg 69%
21:00 +25°C° 0 mm 2 mps 754 mmHg 72%
22:00 +24°C° 0 mm 2 mps 754 mmHg 72%
23:00 +23°C° 0 mm 2 mps 754 mmHg 72%

23 June, Wednesday

Time Temperature Precipitation Wind Pressure Humidity
00:00 +23°C° 0 mm 2 mps 754 mmHg 73%
01:00 +21°C° 0 mm 2 mps 754 mmHg 74%
02:00 +21°C° 0 mm 2 mps 755 mmHg 76%
03:00 +20°C° 0 mm 2 mps 755 mmHg 78%
04:00 +21°C° 0 mm 2 mps 755 mmHg 79%
05:00 +23°C° 0 mm 2 mps 755 mmHg 80%
06:00 +23°C° 0 mm 2 mps 755 mmHg 81%
07:00 +25°C° 0 mm 2 mps 755 mmHg 75%
08:00 +27°C° 0 mm 3 mps 755 mmHg 69%
09:00 +29°C° 0 mm 3 mps 755 mmHg 63%
10:00 +30°C° 0 mm 3 mps 755 mmHg 59%
11:00 +31°C° 0 mm 3 mps 755 mmHg 54%
12:00 +33°C° 0 mm 3 mps 755 mmHg 50%
13:00 +34°C° 0 mm 3 mps 755 mmHg 49%
14:00 +34°C° 0 mm 3 mps 755 mmHg 47%
15:00 +34°C° 0 mm 3 mps 755 mmHg 46%
16:00 +34°C° 0 mm 2 mps 754 mmHg 51%
17:00 +32°C° 0 mm 2 mps 754 mmHg 56%
18:00 +32°C° 0 mm 2 mps 754 mmHg 61%
19:00 +30°C° 0 mm 2 mps 754 mmHg 64%
20:00 +28°C° 0 mm 2 mps 754 mmHg 67%
21:00 +26°C° 0 mm 2 mps 754 mmHg 70%
22:00 +26°C° 0 mm 2 mps 754 mmHg 70%
23:00 +25°C° 0 mm 2 mps 754 mmHg 70%

24 June, Thursday

Time Temperature Precipitation Wind Pressure Humidity
00:00 +24°C° 0 mm 2 mps 754 mmHg 70%
01:00 +24°C° 0 mm 2 mps 754 mmHg 72%
02:00 +23°C° 0 mm 2 mps 755 mmHg 73%
03:00 +23°C° 0 mm 2 mps 755 mmHg 75%
04:00 +23°C° 0 mm 2 mps 755 mmHg 76%
05:00 +24°C° 0 mm 2 mps 755 mmHg 77%
06:00 +24°C° 0 mm 2 mps 755 mmHg 78%
07:00 +26°C° 0 mm 2 mps 755 mmHg 72%
08:00 +28°C° 0 mm 2 mps 755 mmHg 67%
09:00 +29°C° 0 mm 2 mps 755 mmHg 61%
10:00 +30°C° 0 mm 2 mps 755 mmHg 57%
11:00 +31°C° 0 mm 2 mps 754 mmHg 53%
12:00 +32°C° 0 mm 2 mps 754 mmHg 50%
13:00 +32°C° 0 mm 2 mps 754 mmHg 48%
14:00 +33°C° 0 mm 1 mps 754 mmHg 46%
15:00 +33°C° 0 mm 1 mps 754 mmHg 44%
16:00 +33°C° 0 mm 1 mps 754 mmHg 49%
17:00 +32°C° 0 mm 1 mps 753 mmHg 54%
18:00 +32°C° 0 mm 1 mps 753 mmHg 59%
19:00 +30°C° 0 mm 1 mps 753 mmHg 62%
20:00 +28°C° 0 mm 1 mps 753 mmHg 64%
21:00 +26°C° 0 mm 2 mps 753 mmHg 66%
22:00 +25°C° 0 mm 1 mps 753 mmHg 68%
23:00 +25°C° 0 mm 1 mps 753 mmHg 70%

25 June, Friday

Time Temperature Precipitation Wind Pressure Humidity
00:00 +24°C° 0 mm 1 mps 753 mmHg 72%
01:00 +23°C° 0 mm 1 mps 753 mmHg 73%
02:00 +23°C° 0 mm 2 mps 753 mmHg 75%
03:00 +23°C° 0 mm 2 mps 753 mmHg 76%
04:00 +23°C° 0 mm 1 mps 753 mmHg 76%
05:00 +24°C° 0 mm 1 mps 753 mmHg 76%
06:00 +25°C° 0 mm 1 mps 753 mmHg 76%
07:00 +26°C° 0 mm 1 mps 753 mmHg 71%
08:00 +28°C° 0 mm 1 mps 752 mmHg 66%
09:00 +29°C° 0 mm 2 mps 752 mmHg 61%
10:00 +30°C° 0 mm 1 mps 752 mmHg 57%
11:00 +32°C° 0 mm 1 mps 752 mmHg 53%
12:00 +33°C° 0 mm 1 mps 752 mmHg 50%
13:00 +33°C° 0 mm 1 mps 752 mmHg 47%
14:00 +33°C° 0 mm 1 mps 752 mmHg 45%
15:00 +34°C° 0 mm 1 mps 751 mmHg 42%
16:00 +34°C° 0 mm 1 mps 751 mmHg 46%
17:00 +33°C° 0 mm 1 mps 751 mmHg 50%
18:00 +31°C° 0 mm 0 mps 751 mmHg 54%
19:00 +31°C° 0 mm 1 mps 750 mmHg 58%
20:00 +29°C° 0 mm 1 mps 750 mmHg 61%
21:00 +27°C° 0 mm 1 mps 750 mmHg 65%
22:00 +26°C° 0 mm 1 mps 750 mmHg 67%
23:00 +25°C° 0 mm 1 mps 750 mmHg 69%
Show more